Regional Weather Roundup
Issued by NWS

Home | Current Version | Previous Version | Graphics & Text | Print | Product List | Glossary On
Versions: 1 2 3 4 5 6 7 8 9 10 11 12 13 14 15 16 17 18 19 20 21 22 23 24 25 26 27 28 29 30 31 32 33 34 35 36 37 38 39 40 41 42 43 44 45 46 47 48 49 50
000
ASUS43 KFSD 262302
RWRSD

WEATHER ROUNDUP FOR SOUTH DAKOTA
NATIONAL WEATHER SERVICE SIOUX FALLS SD
600 PM CDT SUN MAR 26 2017

NOTE: "FAIR" INDICATES FEW OR NO CLOUDS BELOW 12,000 FEET WITH NO
SIGNIFICANT WEATHER AND/OR OBSTRUCTIONS TO VISIBILITY.


SDZ001>005-009-010-012>017-270000-
NORTHWEST AND NORTH CENTRAL SOUTH DAKOTA

CITY           SKY/WX    TMP DP  RH WIND       PRES   REMARKS
BUFFALO          N/A     56  38  50 SW10      29.83S
FAITH            N/A     50  35  56 MISG      29.91F
MOBRIDGE       PTSUNNY   54  35  48 S6        29.89S
$$

SDZ012>016-024>037-041>051-057-063-072>074-270000-
SOUTHWEST AND SOUTH CENTRAL SOUTH DAKOTA

CITY           SKY/WX    TMP DP  RH WIND       PRES   REMARKS
RAPID CTY ARPT LGT RAIN  43  38  82 N3        29.93F
PIERRE         CLOUDY    45  39  79 NW3       29.92F
CUSTER         CLOUDY    37  35  92 CALM      29.91S FOG
ELLSWORTH AFB  DRIZZLE   43  42  98 CALM      29.93
PHILIP         CLOUDY    44  39  82 CALM      29.94S
PINE RIDGE     CLOUDY    50  40  68 N10       29.93R
SPEARFISH      FAIR      45  36  70 CALM      29.94S
WINNER         MOCLDY    49  39  68 NE3       29.92R
$$

SDZ004>011-016>023-039-040-270000-
NORTHEAST SOUTH DAKOTA

CITY           SKY/WX    TMP DP  RH WIND       PRES   REMARKS
ABERDEEN       PTSUNNY   50  35  56 VRB3      29.93F
WATERTOWN      CLOUDY    44  37  76 N5        29.92S
SISSETON         N/A     47  40  76 NE5       29.93R
$$

SDZ017-020-022-023-036>040-048>070-270000-
SOUTHEAST SOUTH DAKOTA

CITY           SKY/WX    TMP DP  RH WIND       PRES   REMARKS
SIOUX FALLS    CLOUDY    48  39  71 N7        29.92S
HURON          CLOUDY    49  38  65 N3        29.93S
CHAMBERLAIN    CLOUDY    48  41  76 NW5       29.93S
MITCHELL       CLOUDY    49  39  68 N6        29.93F
YANKTON        CLOUDY    48  39  71 N7        29.91S
$$

ABBREVIATIONS USED IN REMARKS
   TC - TEMPERATURE IN CELSIUS
  WCI - WIND CHILL INDEX
   HX - HEAT INDEX
  VSB - VISIBILITY





USA.gov is the U.S. government's official web portal to all federal, state and local government web resources and services.